Showing default

COSMOS 2273, 23004

Orbit data source: Space-Track

COSMOS 2273, 23004 is a payload satellite owned by VKS (CIS) in LEO that was launched on Sat, 12 Feb 1994 UTC via a TSIKLON-3 launch vehicle from the Plesetsk Missile And Space Complex (PKMTR). Payload-class satellites include a variety of spacecraft equipped with specific instruments for various scientific and technological missions. These include communications satellites like Starlink; space stations such as the ISS; scientific satellites like the Hubble; Earth observation satellites from companies like Planet Labs, Umbra, and HawkEye 360; GPS; miniature CubeSats for education and research; and military/defense satellites.

Loading next visibility...
Identifier
23004, 1994-011F
Orbit
LEO
Country
Flag of CISCIS
Related business
Manufacturer
NPO PM
Mission
Defense Communications
Bus & Motor
STRELA-3, Unknown motor
Mass
225 kg wet, 225 kg dry
Launch date (UTC)
1994-02-12 (32 years ago)
Launch vehicle
TSIKLON-3
Launch site
Plesetsk Missile And Space Complex (PKMTR)
Object type
Payload
Rocket body
Debris
Shape & HBR
Cyl, 0.8 m
Radar Cross Section
1.257 m², Medium (>0.1 m² and < 1m²)

Expand to show TLE details & history
Last TLE update: 21 hours ago

TLE from 21 hours ago
0 COSMOS 2273
1 23004U 94011F   25257.60920108  .00000009  00000-0 -97084-5 0  9994
2 23004  82.5742 131.1743 0006055  91.2423 327.6140 12.62909723455969
Epoch: 2025-09-14T14:37Z
TLE epoch observation values (Epoch: 2025-09-14T14:37:14.973Z)
Latitude
58.12397°
Longitude
-69.92629°
Altitude
1,416.724 km
Speed
7.159 km/s
True Right ascension
09h 32m 50s
True Declination
57° 58' 57"
Sunlit
Object was in daylight at epoch
Visualization orbit readout
Latitude
Unknown
Longitude
Unknown
Altitude
Unknown
Speed
Unknown
Apparent Right ascension
Unknown
Apparent Declination
Unknown
Sunlit
N/A
Visualization observer readout
Local Sidereal Time
03:56:46
Azimuth
Unknown
Elevation
Unknown
Doppler factor
Unknown
Orbital elements
Apogee altitude
1,412.992 km
Perigee altitude
1,403.563 km
Semi-major axis
7,786.414 km
Eccentricity
0.00061
Inclination
82.5742°
RAAN
131.1743°
Arg. of periapsis
91.2423°
True anomaly
327.57681°
Mean anomaly
327.614°
Eccentric anomaly
327.59541°
Mean motion
3.15891 °/min
Orbital period
113.96 mins
BSTAR
-0.0000097084
Loading maneuver chart data...
Computing Atmospheric mass density...
Loading historical data...
Loading historical data...
Loading historical data...
Loading historical data...
Loading historical data...
Loading historical data...
Loading historical data...

Documentation

Showing up to 5 results
|